Weather History for Drummond Island, MI

Change the Weather History Date:

Thursday, February 13, 2014

  Actual Average (KCIU) Record (KCIU)
Temperature  
Mean Temperature 20 °F -  
Max Temperature 23 °F 25 °F 43 °F (1984)
Min Temperature 16 °F 2 °F -27 °F (1981)
Degree Days  
Heating Degree Days 46    
Moisture  
Dew Point 16 °F    
Average Humidity 86    
Maximum Humidity 93    
Minimum Humidity 77    
Precipitation  
Precipitation 0.00 in - - ()
Sea Level Pressure  
Sea Level Pressure 29.82 in    
Wind  
Wind Speed 4 mph (ESE)    
Max Wind Speed 16 mph    
Max Gust Speed 23 mph    
Visibility 7 miles    
Events Snow    
Averages and records for this station are not official NWS values.
T = Trace of Precipitation, MM = Missing Value Source: NWS Daily Summary

Daily Weather History Graph

Daily Weather History Graph

Search for Another Location

Airport:

Trip Planner

Search our weather history database for the weather conditions in past years. The results will help you decide how hot, cold, wet, or windy it might be!

Date:

Astronomy

Feb. 13, 2014 Rise Set
Actual Time 7:40 AM EST 5:58 PM EST
Civil Twilight 7:09 AM EST 6:29 PM EST
Nautical Twilight 6:34 AM EST 7:04 PM EST
Astronomical Twilight 6:00 AM EST 7:38 PM EST
Moon 5:05 PM EST (2/13) 6:34 AM EST (2/13)
Length of Visible Light 11h 19m
Length of Day
10h 17m
Waxing Gibbous, 98% of the Moon is Illuminated
Feb 13
Waxing Gibbous
Feb 14
Full
Feb 22
Last Quarter
Mar 1
New
Mar 8
First Quarter

Hourly Weather History & Observations

Time (EST) Temp. Windchill Dew Point Humidity Pressure Visibility Wind Dir Wind Speed Gust Speed Precip Events Conditions
12:14 AM 18.0 °F - 14.5 °F 86% 30.02 in 4.0 mi Calm Calm - N/A Snow Light Snow
12:35 AM 17.1 °F - 14.7 °F 91% 30.02 in 5.0 mi Calm Calm - N/A Snow Light Snow
12:55 AM 17.1 °F - 14.5 °F 90% 30.01 in 5.0 mi Calm Calm - N/A Snow Light Snow
1:14 AM 17.1 °F - 14.2 °F 88% 30.01 in 5.0 mi Calm Calm - N/A Snow Light Snow
1:35 AM 16.7 °F - 14.4 °F 91% 30.00 in 10.0 mi Calm Calm - N/A Snow Light Snow
1:55 AM 16.7 °F - 14.5 °F 91% 29.99 in 7.0 mi Calm Calm - N/A Snow Light Snow
2:15 AM 16.7 °F - 14.4 °F 91% 29.99 in 7.0 mi Calm Calm - N/A Snow Light Snow
2:35 AM 16.7 °F - 14.0 °F 89% 29.99 in 5.0 mi Calm Calm - N/A Snow Light Snow
2:55 AM 16.5 °F - 14.2 °F 90% 29.98 in 5.0 mi Calm Calm - N/A Snow Light Snow
3:15 AM 16.7 °F - 14.5 °F 91% 29.98 in 5.0 mi Calm Calm - N/A Snow Light Snow
3:35 AM 17.1 °F - 14.5 °F 90% 29.98 in 7.0 mi Calm Calm - N/A Snow Light Snow
3:55 AM 16.9 °F 11.5 °F 14.4 °F 90% 29.98 in 4.0 mi SE 3.5 mph - N/A Snow Light Snow
4:15 AM 17.1 °F - 14.5 °F 90% 29.98 in 7.0 mi Calm Calm - N/A Snow Light Snow
4:35 AM 17.2 °F - 14.7 °F 90% 29.98 in 5.0 mi Calm Calm - N/A Snow Light Snow
4:54 AM 17.1 °F - 14.7 °F 91% 29.98 in 5.0 mi Calm Calm - N/A Snow Light Snow
5:15 AM 17.4 °F - 14.9 °F 90% 29.98 in 7.0 mi Calm Calm - N/A Snow Light Snow
5:35 AM 17.6 °F - 15.3 °F 91% 29.98 in 7.0 mi Calm Calm - N/A Snow Light Snow
5:54 AM 17.2 °F 11.9 °F 14.9 °F 91% 29.97 in 5.0 mi ESE 3.5 mph - N/A Snow Light Snow
6:15 AM 18.0 °F - 15.8 °F 91% 29.97 in 5.0 mi Calm Calm - N/A Snow Light Snow
6:35 AM 17.4 °F - 15.3 °F 91% 29.97 in 7.0 mi Calm Calm - N/A Snow Light Snow
6:55 AM 17.2 °F - 15.4 °F 93% 29.97 in 4.0 mi Calm Calm - N/A Snow Light Snow
7:15 AM 18.1 °F 12.9 °F 16.2 °F 92% 29.97 in 4.0 mi SSE 3.5 mph - N/A Snow Light Snow
7:35 AM 19.4 °F 12.8 °F 17.1 °F 91% 29.97 in 2.5 mi SSE 4.6 mph - N/A Snow Light Snow
7:55 AM 20.1 °F 15.2 °F 17.1 °F 88% 29.97 in 4.0 mi South 3.5 mph - N/A Snow Light Snow
8:15 AM 20.1 °F 12.3 °F 17.4 °F 89% 29.95 in 3.0 mi SSE 5.8 mph - N/A Snow Light Snow
8:35 AM 20.3 °F 15.4 °F 17.4 °F 89% 29.95 in 2.5 mi SSE 3.5 mph - N/A Snow Light Snow
8:55 AM 20.3 °F 11.5 °F 17.1 °F 87% 29.94 in 3.0 mi SSE 6.9 mph - N/A Snow Light Snow
9:15 AM 20.8 °F 10.4 °F 17.1 °F 85% 29.93 in 7.0 mi South 9.2 mph - N/A Snow Light Snow
9:34 AM 21.2 °F 12.6 °F 15.8 °F 80% 29.92 in 10.0 mi ESE 6.9 mph - N/A Snow Light Snow
9:55 AM 21.7 °F 14.3 °F 15.4 °F 77% 29.91 in 10.0 mi ESE 5.8 mph - N/A   Overcast
10:15 AM 21.9 °F 14.5 °F 15.8 °F 77% 29.90 in 10.0 mi SE 5.8 mph - N/A   Overcast
10:35 AM 21.7 °F 12.3 °F 16.3 °F 80% 29.90 in 10.0 mi SE 8.1 mph - N/A   Overcast
10:55 AM 21.9 °F 10.4 °F 16.9 °F 81% 29.89 in 10.0 mi SE 11.5 mph 16.1 mph N/A   Overcast
11:15 AM 21.9 °F 10.4 °F 17.6 °F 83% 29.88 in 10.0 mi ESE 11.5 mph - N/A   Overcast
11:35 AM 21.9 °F 10.4 °F 17.1 °F 82% 29.87 in 10.0 mi SE 11.5 mph - N/A   Overcast
11:55 AM 22.1 °F 11.3 °F 17.2 °F 82% 29.86 in 10.0 mi SE 10.4 mph - N/A   Overcast
12:15 PM 22.3 °F 10.2 °F 17.4 °F 82% 29.84 in 10.0 mi ESE 12.7 mph 18.4 mph N/A   Overcast
12:35 PM 22.5 °F 10.5 °F 17.6 °F 82% 29.82 in 10.0 mi SE 12.7 mph 17.3 mph N/A   Overcast
12:55 PM 22.8 °F 10.9 °F 18.3 °F 83% 29.81 in 10.0 mi ESE 12.7 mph 18.4 mph N/A   Overcast
1:14 PM 22.8 °F 10.4 °F 19.0 °F 85% 29.80 in 10.0 mi SE 13.8 mph 19.6 mph N/A   Overcast
1:35 PM 23.0 °F 10.6 °F 19.4 °F 86% 29.78 in 7.0 mi SE 13.8 mph 21.9 mph N/A   Overcast
1:55 PM 23.0 °F 11.1 °F 19.0 °F 85% 29.78 in 7.0 mi SE 12.7 mph 21.9 mph N/A   Overcast
2:35 PM 23.0 °F 11.1 °F 18.0 °F 81% 29.75 in 10.0 mi SE 12.7 mph 20.7 mph N/A   Overcast
2:54 PM 22.8 °F 9.9 °F 16.7 °F 77% 29.74 in 10.0 mi SE 15.0 mph 21.9 mph N/A   Overcast
3:15 PM 22.8 °F 9.4 °F 17.8 °F 81% 29.73 in 7.0 mi ESE 16.1 mph 23.0 mph N/A   Overcast
3:35 PM 22.6 °F 9.6 °F 17.6 °F 81% 29.72 in 7.0 mi SE 15.0 mph 21.9 mph N/A   Overcast
3:55 PM 22.3 °F 10.2 °F 17.4 °F 82% 29.71 in 10.0 mi SE 12.7 mph 19.6 mph N/A   Overcast
4:15 PM 21.9 °F 9.8 °F 16.5 °F 80% 29.71 in 7.0 mi SE 12.7 mph 20.7 mph N/A   Overcast
4:35 PM 21.7 °F 10.2 °F 16.3 °F 80% 29.70 in 5.0 mi SE 11.5 mph 18.4 mph N/A Snow Light Snow
4:55 PM 21.7 °F 9.0 °F 15.8 °F 78% 29.69 in 4.0 mi ESE 13.8 mph 19.6 mph N/A Snow Light Snow
5:15 PM 21.6 °F 11.3 °F 15.8 °F 78% 29.68 in 5.0 mi ESE 9.2 mph 18.4 mph N/A Snow Light Snow
5:35 PM 21.6 °F 10.6 °F 15.8 °F 78% 29.68 in 4.0 mi ESE 10.4 mph 17.3 mph N/A Snow Light Snow
5:55 PM 21.6 °F 10.6 °F 17.1 °F 83% 29.67 in 5.0 mi ESE 10.4 mph 16.1 mph N/A Snow Light Snow
6:15 PM 21.7 °F 13.2 °F 17.6 °F 84% 29.67 in 2.5 mi ESE 6.9 mph - N/A Snow Light Snow
6:35 PM 21.9 °F 10.4 °F 18.0 °F 85% 29.66 in 2.5 mi ESE 11.5 mph 16.1 mph N/A Snow Light Snow
6:55 PM 21.9 °F 11.7 °F 18.3 °F 86% 29.65 in 3.0 mi ESE 9.2 mph 16.1 mph N/A Snow Light Snow
7:15 PM 22.1 °F 12.0 °F 18.3 °F 85% 29.64 in 10.0 mi East 9.2 mph - N/A   Overcast
7:35 PM 22.1 °F 10.6 °F 18.3 °F 85% 29.63 in 7.0 mi ESE 11.5 mph 16.1 mph N/A Snow Light Snow
7:55 PM 22.1 °F 12.8 °F 18.3 °F 85% 29.62 in 2.5 mi ESE 8.1 mph - N/A Snow Light Snow
8:15 PM 22.1 °F 14.7 °F 18.1 °F 85% 29.62 in 7.0 mi SE 5.8 mph - N/A Snow Light Snow
8:35 PM 22.1 °F 13.7 °F 18.1 °F 85% 29.61 in 5.0 mi East 6.9 mph - N/A Snow Light Snow
8:55 PM 21.4 °F 16.6 °F 17.6 °F 85% 29.60 in 7.0 mi East 3.5 mph - N/A Snow Light Snow
9:14 PM 21.0 °F 14.6 °F 17.4 °F 86% 29.59 in 10.0 mi East 4.6 mph - N/A   Overcast
9:35 PM 20.3 °F 15.4 °F 17.2 °F 88% 29.59 in 10.0 mi East 3.5 mph - N/A   Overcast
9:55 PM 20.3 °F 15.4 °F 16.9 °F 87% 29.59 in 10.0 mi East 3.5 mph - N/A   Overcast
10:15 PM 20.3 °F 13.8 °F 16.3 °F 85% 29.59 in 10.0 mi East 4.6 mph - N/A   Overcast
10:35 PM 20.3 °F 11.5 °F 15.8 °F 83% 29.58 in 7.0 mi ENE 6.9 mph - N/A Snow Light Snow
10:54 PM 20.1 °F 12.3 °F 16.3 °F 85% 29.57 in 2.5 mi East 5.8 mph - N/A Snow Light Snow
11:15 PM 20.1 °F 12.3 °F 16.5 °F 86% 29.55 in 5.0 mi East 5.8 mph - N/A Snow Light Snow
11:35 PM 20.3 °F 12.5 °F 16.5 °F 85% 29.55 in 7.0 mi East 5.8 mph - N/A Snow Light Snow
11:55 PM 20.3 °F 11.5 °F 16.7 °F 86% 29.54 in 10.0 mi East 6.9 mph - N/A Snow Light Snow